Skip Page Navigation
NASA JPL Caltech
NASA Logo - Jet Propulsion Laboratory + View the NASA Portal
+ Near-Earth Object (NEO) Program
Search JPL
JPL Home Earth Solar System Stars & Galaxies Technology
JPL Solar System Dynamics
BODIES ORBITS EPHEMERIDES TOOLS PHYSICAL DATA DISCOVERY FAQ SITE MAP
JPL Small-Body Database Browser
Search: [ help ]  
16657 (1993 UB)
Classification: Amor [NEO]          SPK-ID: 2016657
Ephemeris | Orbit Diagram | Orbital Elements | Physical Parameters | Discovery Circumstances | Close-Approach Data ]

[ show orbit diagram ]
Orbital Elements at Epoch 2457000.5 (2014-Dec-09.0) TDB
Reference: JPL 36 (heliocentric ecliptic J2000)
 Element Value Uncertainty (1-sigma)   Units 
e .4613626757000411 1.2363e-07  
a 2.276519465673672 2.5773e-08 AU
q 1.226218353707239 2.7471e-07 AU
i 24.97673009526414 1.6194e-05 deg
node 31.31081915725036 2.4291e-05 deg
peri 21.22134629873647 4.1644e-05 deg
M 43.51638809115396 4.6329e-05 deg
tp 2456848.845319096138
(2014-Jul-10.34531910)
0.00015894 JED
period 1254.600565906996
3.43
2.1305e-05
5.833e-08
d
yr
n .286943916480496 4.8728e-09 deg/d
Q 3.326820577640106 3.7663e-08 AU
  Orbit Determination Parameters
   # obs. used (total)      179  
   data-arc span      7842 days (21.47 yr)  
   first obs. used      1993-10-23  
   last obs. used      2015-04-13  
   planetary ephem.      DE431  
   SB-pert. ephem.      SB431-BIG16  
   condition code      0  
   fit RMS      .70434  
   data source      ORB  
   producer      Otto Matic  
   solution date      2015-Jun-04 16:26:57  

Additional Information
 Earth MOID = .251982 AU 
 T_jup = 3.350 
[ show covariance matrix ]

Ephemeris | Orbit Diagram | Orbital Elements | Physical Parameters | Discovery Circumstances | Close-Approach Data ]

Physical Parameter Table
Parameter Symbol Value Units Sigma Reference Notes
absolute magnitude H 16.6 mag n/a MPO229170  
SMASSII spectral type spec_B Sr   n/a EAR-A-5-DDR-TAXONOMY-V4.0 based on a high-resolution spectrum by Xu et al. (1995) or Bus and Binzel (2002)

16657 (1993 UB)          Discovered 1993-Oct-23 by McNaught, R. H. at Siding Spring
Reference: 20000913/Numbers.arcLast Updated: 2004-04-19

[ show close-approach data ]
Ephemeris | Orbit Diagram | Orbital Elements | Physical Parameters | Discovery Circumstances | Close-Approach Data ]
ABOUT SSD CREDITS/AWARDS PRIVACY/COPYRIGHT GLOSSARY LINKS
FirstGov 2015-Aug-04 21:59 UT
(server date/time)  
NASA Home Page
Site Manager:   Ryan S. Park
Webmaster  Alan B. Chamberlin